User: anonymous
Location: Cincinnati Observatory Center
(39.1389°N, 84.4225°W)
Time: 13:44:48
(UTC-04:00)
Language:

HST - Orbit

View from above orbital plane
View from above orbital plane
View from above satellite
View from above satellite

Ground track
Ground track

The orbit data is extracted from the following two-line orbital elements,

1 20580U 90037B   14260.14219856  .00003065  00000-0  19479-3 0  1127
2 20580 028.4698 152.5176 0002909 187.0819 298.6454 15.05745462138598
Epoch (UTC): 17 September 2014 03:24:45
Eccentricity: 0.0002909
inclination: 28.4698°
perigee height: 547 km
apogee height: 551 km
right ascension of ascending node: 152.5176°
argument of perigee: 187.0819°
revolutions per day: 15.05745462
mean anomaly at epoch: 298.6454°
orbit number at epoch: 13859

The dashed part of the orbit path shows where the satellite is in the earth's shadow,  

DLR